Location: *
(55.6049°S, 142.1985°W)
Time: 16:08:14
(UTC+00:00)

CZ-4C R/B - Pass Details

Date: 12 May 2021
Orbit: 609 x 1393 km, 63.4° (Epoch: 17 June)

Event Time Altitude Azimuth Distance (km) Brightness Sun altitude
Exits shadow 14:52:02 26° 230° (SW) 1,912 3.6 -19.7°
Maximum altitude 14:55:17 42° 177° (S) 1,327 3.2 -19.2°
Drops below altitude 10° 15:00:38 10° 105° (ESE) 2,425 5.6 -18.4°
Sets 15:03:00 0° 98° (E) 3,252 6.8 -18.1°
